Location: Colonie
(42.7179°N, 73.8335°W)
Time: 05:23:07
(UTC+00:00)

Okean-O - Pass Details

Date: 29 October 2020
Orbit: 638 x 641 km, 98.2° (Epoch: 29 November)

Event Time Altitude Azimuth Distance (km) Brightness Sun altitude
Rises 22:50:54 0° 146° (SE) 2,934 5.8 -11.5°
Reaches altitude 10° 22:53:11 10° 139° (SE) 2,029 4.9 -11.9°
Maximum altitude 22:57:18 40° 70° (ENE) 956 3.0 -12.7°
Drops below altitude 10° 23:01:27 10° 2° (N) 2,042 5.1 -13.4°
Sets 23:03:45 0° 355° (N) 2,956 6.0 -13.8°
